Find Local Weather

World > North America > United States > South Carolina

Mountain Rest, South Carolina Regional Weather

Lat: 34.87N, Lon: 83.15W
Wx Zone: SCZ001
Feedback
Expires:201811212100;;648827
ASUS42 KCAE 212010
RWRCAE
REGIONAL WEATHER ROUNDUP
NATIONAL WEATHER SERVICE COLUMBIA SC
300 PM EST WED NOV 21 2018

NOTE: "FAIR" INDICATES FEW OR NO CLOUDS BELOW 12,000 FEET WITH NO
SIGNIFICANT WEATHER AND/OR OBSTRUCTIONS TO VISIBILITY.

NOT ALL STATIONS ARE QUALITY CONTROLLED BY THE NATIONAL 
WEATHER SERVICE. USE DATA WITH CAUTION...ESPECIALLY 
DEWPOINT OBSERVATIONS.


SCZ001>056-GAZ040-063>065-077-212100-
...UPSTATE SOUTH CAROLINA...
  
CITY           SKY/WX    TMP DP  RH WIND       PRES   REMARKS
ANDERSON       FAIR      59  34  39 VRB5      30.20S                  
LIBERTY        FAIR      59  35  39 S5        30.18S                  
SPARTANBURG    FAIR      59  32  36 W6        30.19S                  
CLEMSON        FAIR      59  35  40 W6        30.19F                  
GREENVILLE     FAIR      60  34  37 W7        30.20S                  
GREENWOOD      FAIR      58  35  42 W7        30.22S                  
GREER          FAIR      58  32  37 VRB5      30.20S                  
ROCK HILL      FAIR      57  36  45 CALM      30.19F                  
CHESTER        FAIR      57  30  35 SW5       30.20S                  
LAURENS        FAIR      59  34  38 W7        30.20S                  


...CENTRAL SOUTH CAROLINA...
  
CITY           SKY/WX    TMP DP  RH WIND       PRES   REMARKS
COLUMBIA APT   FAIR      60  38  43 NW7       30.19F                  
COLUMBIA OWENS FAIR      60  34  37 NW7       30.20F                  
MCENTIRE ANGB  MOSUNNY   61  36  39 W6        30.19F                  
ORANGEBURG     FAIR      62  38  40 W6        30.19F                  
SUMTER SHAW    FAIR      60  36  40 NW7       30.18F                  
AIKEN          FAIR      59  37  44 NW5       30.23S                  
BARNWELL       FAIR      63  37  39 VRB6G12   30.19F                  
MANNING        FAIR      55  34  44 N6        30.18F                  
CAMDEN         FAIR      59  36  41 NW5       30.20S                  
LANCASTER      FAIR      57  32  38 W3        30.19F                  
WINNSBORO      FAIR      57  36  44 W5        30.20S                  


...EASTERN AND COASTAL SOUTH CAROLINA...
  
CITY           SKY/WX    TMP DP  RH WIND       PRES   REMARKS
MYRTLE BEACH   FAIR      63  41  44 N13       30.17F                  
N MYRTLE BCH   FAIR      62  40  44 NW9       30.15F                  
MARION         FAIR      59  37  44 W6        30.18S                  
HARTSVILLE     FAIR      59  34  38 NW3       30.18S                  
FLORENCE       FAIR      60  36  40 NW5       30.19S                  
DARLINGTON     FAIR      60  37  42 W6        30.19F                  
CHARLESTON APT FAIR      66  43  43 N12       30.17S                  
WALTERBORO     FAIR      63  43  48 N3        30.19S                  
BEAUFORT       FAIR      65  46  50 N7        30.17                   
HILTON HEAD    SUNNY     63  48  59 N8        30.18F                  


...EASTERN GEORGIA...
  
CITY           SKY/WX    TMP DP  RH WIND       PRES   REMARKS
AUGUSTA BUSH F FAIR      63  38  39 N6        30.19F                  
AUGUSTA DANIEL FAIR      61  36  39 NW5       30.20F                  
THOMSON        FAIR      59  36  43 N6        30.25F                  
CLAXTON        FAIR      65  42  42 N5        30.19F HAZE             
SYLVANIA       FAIR      64  43  45 NE7       30.20S                  
STATESBORO     FAIR      62  42  47 N3        30.20S                  
SAVANNAH       FAIR      65  44  46 VRB7      30.18F                  


...SOUTHERN NORTH CAROLINA...
  
CITY           SKY/WX    TMP DP  RH WIND       PRES   REMARKS
CHARLOTTE      FAIR      60  28  29 VRB3      30.19S                  
MONROE         FAIR      58  33  39 W8        30.18S                  
WADESBORO      FAIR      58  31  35 W5        30.18F                  
ROCKINGHAM     FAIR      57  34  42 NW7       30.18F                  
ASHEVILLE      FAIR      53  22  29 NW15      30.21S                  

$$
  

SKY/WX - Weather  TMP - Temperature  DP - Dew Point  RH - Relative Humidity
WIND - Wind Direction/Speed PRES - Barometric Pressure